Time,TemperatureF,DewpointF,PressureIn,WindDirection,WindDirectionDegrees,WindSpeedMPH,WindSpeedGustMPH,Humidity,HourlyPrecipIn,Conditions,Clouds,dailyrainin,SoftwareType,DateUTC
2014-02-06 00:01:00,5.2,-0.5,30.42,WSW,248,1.4,7.2,77,0.00,,,0.00,WUHU216HW,2014-02-06 06:01:00,
2014-02-06 00:06:00,4.9,-0.9,30.42,SW,225,4.2,4.7,77,0.00,,,0.00,WUHU216HW,2014-02-06 06:06:00,
2014-02-06 00:11:00,4.7,-1.0,30.42,SW,225,3.7,5.9,77,0.00,,,0.00,WUHU216HW,2014-02-06 06:11:00,
2014-02-06 00:16:00,4.7,-1.0,30.42,West,270,2.2,5.9,77,0.00,,,0.00,WUHU216HW,2014-02-06 06:16:00,
2014-02-06 00:21:00,4.3,-1.3,30.42,West,270,1.8,4.9,77,0.00,,,0.00,WUHU216HW,2014-02-06 06:21:00,
2014-02-06 00:26:00,4.1,-1.5,30.42,WSW,248,1.4,4.4,77,0.00,,,0.00,WUHU216HW,2014-02-06 06:26:00,
2014-02-06 00:33:00,4.0,-1.7,30.42,WNW,293,2.0,3.0,77,0.00,,,0.00,WUHU216HW,2014-02-06 06:33:00,
2014-02-06 00:39:00,4.0,-1.4,30.41,NW,315,3.2,4.4,78,0.00,,,0.00,WUHU216HW,2014-02-06 06:39:00,
2014-02-06 00:44:00,3.8,-1.6,30.41,WNW,293,3.4,6.9,78,0.00,,,0.00,WUHU216HW,2014-02-06 06:44:00,
2014-02-06 00:49:00,3.6,-1.8,30.41,West,270,1.0,6.9,78,0.00,,,0.00,WUHU216HW,2014-02-06 06:49:00,
2014-02-06 00:54:00,3.2,-2.4,30.41,WNW,293,2.0,3.4,77,0.00,,,0.00,WUHU216HW,2014-02-06 06:54:00,
2014-02-06 00:59:00,3.1,-2.3,30.41,West,270,3.7,3.7,78,0.00,,,0.00,WUHU216HW,2014-02-06 06:59:00,
2014-02-06 01:04:00,3.1,-2.3,30.41,WNW,293,4.2,4.7,78,0.00,,,0.00,WUHU216HW,2014-02-06 07:04:00,
2014-02-06 01:09:00,2.9,-2.5,30.41,WNW,293,3.7,4.7,78,0.00,,,0.00,WUHU216HW,2014-02-06 07:09:00,
2014-02-06 01:14:00,2.9,-2.5,30.41,West,270,3.4,4.9,78,0.00,,,0.00,WUHU216HW,2014-02-06 07:14:00,
2014-02-06 01:19:00,2.7,-2.7,30.40,WSW,248,0.4,4.9,78,0.00,,,0.00,WUHU216HW,2014-02-06 07:19:00,
2014-02-06 01:24:00,2.5,-3.1,30.40,West,270,2.0,4.4,77,0.00,,,0.00,WUHU216HW,2014-02-06 07:24:00,
2014-02-06 01:30:00,2.2,-3.5,30.40,West,270,0.8,3.7,77,0.00,,,0.00,WUHU216HW,2014-02-06 07:30:00,
2014-02-06 01:36:00,2.0,-3.7,30.40,WSW,248,1.2,2.8,77,0.00,,,0.00,WUHU216HW,2014-02-06 07:36:00,
2014-02-06 01:43:00,1.8,-3.9,30.40,West,270,2.2,2.8,77,0.00,,,0.00,WUHU216HW,2014-02-06 07:43:00,
2014-02-06 01:48:00,1.8,-3.9,30.40,West,270,2.2,2.8,77,0.00,,,0.00,WUHU216HW,2014-02-06 07:48:00,
2014-02-06 01:53:00,1.8,-3.9,30.40,West,270,1.2,2.8,77,0.00,,,0.00,WUHU216HW,2014-02-06 07:53:00,
2014-02-06 01:58:00,1.6,-4.0,30.40,WSW,248,2.0,2.8,77,0.00,,,0.00,WUHU216HW,2014-02-06 07:58:00,
2014-02-06 02:03:00,1.3,-4.1,30.40,SW,225,2.0,2.2,78,0.00,,,0.00,WUHU216HW,2014-02-06 08:03:00,
2014-02-06 02:08:00,1.1,-4.6,30.41,WSW,248,3.7,3.7,77,0.00,,,0.00,WUHU216HW,2014-02-06 08:08:00,
2014-02-06 02:13:00,1.1,-4.6,30.40,West,270,3.7,4.2,77,0.00,,,0.00,WUHU216HW,2014-02-06 08:13:00,
2014-02-06 02:18:00,1.1,-4.3,30.40,West,270,2.0,4.2,78,0.00,,,0.00,WUHU216HW,2014-02-06 08:18:00,
2014-02-06 02:23:00,0.9,-4.8,30.40,West,270,0.8,3.7,77,0.00,,,0.00,WUHU216HW,2014-02-06 08:23:00,
2014-02-06 02:28:00,0.7,-4.8,30.40,West,270,1.4,3.7,77,0.00,,,0.00,WUHU216HW,2014-02-06 08:28:00,
2014-02-06 02:33:00,0.5,-5.0,30.40,West,270,0.4,2.8,77,0.00,,,0.00,WUHU216HW,2014-02-06 08:33:00,
2014-02-06 02:38:00,0.4,-5.2,30.40,WSW,248,0.4,3.0,77,0.00,,,0.00,WUHU216HW,2014-02-06 08:38:00,
2014-02-06 02:43:00,0.4,-4.9,30.40,WSW,248,1.2,4.7,78,0.00,,,0.00,WUHU216HW,2014-02-06 08:43:00,
2014-02-06 02:48:00,0.4,-4.9,30.40,West,270,3.0,4.7,78,0.00,,,0.00,WUHU216HW,2014-02-06 08:48:00,
2014-02-06 02:53:00,0.0,-5.3,30.40,West,270,0.4,4.4,78,0.00,,,0.00,WUHU216HW,2014-02-06 08:53:00,
2014-02-06 02:58:00,0.2,-5.1,30.40,West,270,2.0,4.4,78,0.00,,,0.00,WUHU216HW,2014-02-06 08:58:00,
2014-02-06 03:03:00,0.0,-5.3,30.40,WSW,248,1.0,2.4,78,0.00,,,0.00,WUHU216HW,2014-02-06 09:03:00,
2014-02-06 03:08:00,-0.4,-5.6,30.40,WSW,248,0.2,2.0,78,0.00,,,0.00,WUHU216HW,2014-02-06 09:08:00,
2014-02-06 03:13:00,-0.7,-6.2,30.40,WSW,248,1.0,2.0,77,0.00,,,0.00,WUHU216HW,2014-02-06 09:13:00,
2014-02-06 03:18:00,-1.1,-6.6,30.40,WSW,248,1.0,2.0,77,0.00,,,0.00,WUHU216HW,2014-02-06 09:18:00,
2014-02-06 03:23:00,-1.1,-6.6,30.40,WSW,248,1.4,2.2,77,0.00,,,0.00,WUHU216HW,2014-02-06 09:23:00,
2014-02-06 03:30:00,-1.1,-6.3,30.40,West,270,1.2,4.0,78,0.00,,,0.00,WUHU216HW,2014-02-06 09:30:00,
2014-02-06 03:35:00,-1.3,-6.5,30.40,West,270,1.2,4.0,78,0.00,,,0.00,WUHU216HW,2014-02-06 09:35:00,
2014-02-06 03:40:00,-1.4,-6.6,30.40,West,270,3.4,3.7,78,0.00,,,0.00,WUHU216HW,2014-02-06 09:40:00,
2014-02-06 03:45:00,-1.6,-6.6,30.39,West,270,3.7,4.2,79,0.00,,,0.00,WUHU216HW,2014-02-06 09:45:00,
2014-02-06 03:50:00,-1.6,-6.6,30.39,WSW,248,1.0,4.2,79,0.00,,,0.00,WUHU216HW,2014-02-06 09:50:00,
2014-02-06 03:55:00,-1.8,-6.7,30.40,WSW,248,2.0,3.7,79,0.00,,,0.00,WUHU216HW,2014-02-06 09:55:00,
2014-02-06 04:00:00,-1.8,-6.7,30.39,WSW,248,1.8,3.0,79,0.00,,,0.00,WUHU216HW,2014-02-06 10:00:00,
2014-02-06 04:05:00,-1.8,-6.7,30.40,West,270,2.0,4.0,79,0.00,,,0.00,WUHU216HW,2014-02-06 10:05:00,
2014-02-06 04:10:00,-2.0,-6.9,30.39,West,270,1.4,4.0,79,0.00,,,0.00,WUHU216HW,2014-02-06 10:10:00,
2014-02-06 04:15:00,-2.2,-7.1,30.40,WSW,248,2.0,3.2,79,0.00,,,0.00,WUHU216HW,2014-02-06 10:15:00,
2014-02-06 04:20:00,-2.3,-7.3,30.40,WSW,248,1.4,4.0,79,0.00,,,0.00,WUHU216HW,2014-02-06 10:20:00,
2014-02-06 04:25:00,-2.5,-7.5,30.40,SW,225,0.4,4.0,79,0.00,,,0.00,WUHU216HW,2014-02-06 10:25:00,
2014-02-06 04:30:00,-2.7,-7.6,30.40,WSW,248,0.2,3.4,79,0.00,,,0.00,WUHU216HW,2014-02-06 10:30:00,
2014-02-06 04:35:00,-2.9,-7.8,30.40,WSW,248,0.8,2.8,79,0.00,,,0.00,WUHU216HW,2014-02-06 10:35:00,
2014-02-06 04:40:00,-3.1,-8.0,30.40,West,270,0.8,2.8,79,0.00,,,0.00,WUHU216HW,2014-02-06 10:40:00,
2014-02-06 04:45:00,-3.2,-8.2,30.39,WSW,248,0.8,2.4,79,0.00,,,0.00,WUHU216HW,2014-02-06 10:45:00,
2014-02-06 04:50:00,-3.2,-8.2,30.39,SW,225,1.0,2.4,79,0.00,,,0.00,WUHU216HW,2014-02-06 10:50:00,
2014-02-06 04:55:00,-3.4,-8.4,30.39,SW,225,0.4,1.4,79,0.00,,,0.00,WUHU216HW,2014-02-06 10:55:00,
2014-02-06 05:00:00,-3.6,-8.5,30.39,SW,225,2.0,2.0,79,0.00,,,0.00,WUHU216HW,2014-02-06 11:00:00,
2014-02-06 05:05:00,-4.0,-8.9,30.39,SW,225,0.8,2.0,79,0.00,,,0.00,WUHU216HW,2014-02-06 11:05:00,
2014-02-06 05:10:00,-4.1,-9.1,30.39,SSW,203,0.4,1.4,79,0.00,,,0.00,WUHU216HW,2014-02-06 11:10:00,
2014-02-06 05:15:00,-4.3,-9.3,30.39,WSW,248,0.2,1.8,79,0.00,,,0.00,WUHU216HW,2014-02-06 11:15:00,
2014-02-06 05:20:00,-4.3,-9.3,30.38,WSW,248,0.4,1.8,79,0.00,,,0.00,WUHU216HW,2014-02-06 11:20:00,
2014-02-06 05:25:00,-4.7,-9.6,30.38,WSW,248,0.0,1.8,79,0.00,,,0.00,WUHU216HW,2014-02-06 11:25:00,
2014-02-06 05:30:00,-4.7,-9.6,30.38,West,270,1.8,2.0,79,0.00,,,0.00,WUHU216HW,2014-02-06 11:30:00,
2014-02-06 05:35:00,-5.0,-10.0,30.38,WSW,248,0.0,2.0,79,0.00,,,0.00,WUHU216HW,2014-02-06 11:35:00,
2014-02-06 05:40:00,-4.5,-9.4,30.37,West,270,0.4,2.0,79,0.00,,,0.00,WUHU216HW,2014-02-06 11:40:00,
2014-02-06 05:45:00,-4.5,-9.4,30.38,West,270,1.2,2.0,79,0.00,,,0.00,WUHU216HW,2014-02-06 11:45:00,
2014-02-06 05:50:00,-4.7,-9.6,30.38,SSW,203,0.4,2.8,79,0.00,,,0.00,WUHU216HW,2014-02-06 11:50:00,
2014-02-06 05:55:00,-4.9,-9.8,30.38,West,270,1.2,2.8,79,0.00,,,0.00,WUHU216HW,2014-02-06 11:55:00,
2014-02-06 06:00:00,-4.7,-9.6,30.38,WSW,248,2.4,4.0,79,0.00,,,0.00,WUHU216HW,2014-02-06 12:00:00,
2014-02-06 06:05:00,-4.7,-9.6,30.38,SW,225,2.8,4.4,79,0.00,,,0.00,WUHU216HW,2014-02-06 12:05:00,
2014-02-06 06:10:00,-4.7,-9.6,30.37,WSW,248,1.0,4.4,79,0.00,,,0.00,WUHU216HW,2014-02-06 12:10:00,
2014-02-06 06:15:00,-4.7,-9.6,30.37,WSW,248,1.2,4.0,79,0.00,,,0.00,WUHU216HW,2014-02-06 12:15:00,
2014-02-06 06:20:00,-4.7,-9.6,30.37,WSW,248,1.2,3.0,79,0.00,,,0.00,WUHU216HW,2014-02-06 12:20:00,
2014-02-06 06:25:00,-4.9,-9.8,30.37,WSW,248,0.8,2.2,79,0.00,,,0.00,WUHU216HW,2014-02-06 12:25:00,
2014-02-06 06:30:00,-4.9,-9.8,30.38,WSW,248,1.2,2.8,79,0.00,,,0.00,WUHU216HW,2014-02-06 12:30:00,
2014-02-06 06:35:00,-4.9,-9.5,30.38,SW,225,0.4,3.2,80,0.00,,,0.00,WUHU216HW,2014-02-06 12:35:00,
2014-02-06 06:40:00,-5.4,-10.1,30.38,WSW,248,0.4,5.2,80,0.00,,,0.00,WUHU216HW,2014-02-06 12:40:00,
2014-02-06 06:45:00,-4.9,-9.5,30.38,WSW,248,1.0,5.2,80,0.00,,,0.00,WUHU216HW,2014-02-06 12:45:00,
2014-02-06 06:50:00,-5.0,-9.7,30.38,West,270,2.0,3.4,80,0.00,,,0.00,WUHU216HW,2014-02-06 12:50:00,
2014-02-06 06:55:00,-4.9,-9.5,30.38,West,270,3.7,3.7,80,0.00,,,0.00,WUHU216HW,2014-02-06 12:55:00,
2014-02-06 07:00:00,-4.7,-9.4,30.38,West,270,1.0,4.4,80,0.00,,,0.00,WUHU216HW,2014-02-06 13:00:00,
2014-02-06 07:05:00,-4.9,-9.5,30.38,WSW,248,2.0,4.4,80,0.00,,,0.00,WUHU216HW,2014-02-06 13:05:00,
2014-02-06 07:10:00,-5.0,-9.7,30.38,WSW,248,1.8,4.0,80,0.00,,,0.00,WUHU216HW,2014-02-06 13:10:00,
2014-02-06 07:15:00,-5.0,-9.7,30.39,West,270,2.8,3.7,80,0.00,,,0.00,WUHU216HW,2014-02-06 13:15:00,
2014-02-06 07:20:00,-4.9,-9.5,30.38,WSW,248,1.0,3.7,80,0.00,,,0.00,WUHU216HW,2014-02-06 13:20:00,
2014-02-06 07:25:00,-5.0,-9.7,30.39,WSW,248,0.4,2.8,80,0.00,,,0.00,WUHU216HW,2014-02-06 13:25:00,
2014-02-06 07:30:00,-4.9,-9.5,30.38,WSW,248,2.0,3.2,80,0.00,,,0.00,WUHU216HW,2014-02-06 13:30:00,
2014-02-06 07:35:00,-5.0,-9.7,30.38,WSW,248,0.4,3.2,80,0.00,,,0.00,WUHU216HW,2014-02-06 13:35:00,
2014-02-06 07:40:00,-5.0,-9.7,30.38,SW,225,1.4,2.8,80,0.00,,,0.00,WUHU216HW,2014-02-06 13:40:00,
2014-02-06 07:45:00,-5.0,-9.7,30.39,SSW,203,1.8,3.2,80,0.00,,,0.00,WUHU216HW,2014-02-06 13:45:00,
2014-02-06 07:50:00,-5.0,-9.7,30.39,SSW,203,1.2,3.2,80,0.00,,,0.00,WUHU216HW,2014-02-06 13:50:00,
2014-02-06 07:55:00,-4.9,-9.5,30.38,SSW,203,2.4,2.8,80,0.00,,,0.00,WUHU216HW,2014-02-06 13:55:00,
2014-02-06 08:00:00,-5.0,-9.7,30.38,SW,225,0.0,2.8,80,0.00,,,0.00,WUHU216HW,2014-02-06 14:00:00,
2014-02-06 08:05:00,-4.7,-9.4,30.39,WSW,248,0.0,2.8,80,0.00,,,0.00,WUHU216HW,2014-02-06 14:05:00,
2014-02-06 08:11:00,-4.1,-8.8,30.38,WSW,248,1.2,4.9,80,0.00,,,0.00,WUHU216HW,2014-02-06 14:11:00,
2014-02-06 08:16:00,-4.0,-8.6,30.39,West,270,4.4,5.9,80,0.00,,,0.00,WUHU216HW,2014-02-06 14:16:00,
2014-02-06 08:21:00,-3.8,-8.5,30.39,WSW,248,2.2,5.9,80,0.00,,,0.00,WUHU216HW,2014-02-06 14:21:00,
2014-02-06 08:26:00,-3.6,-8.3,30.39,West,270,2.0,5.2,80,0.00,,,0.00,WUHU216HW,2014-02-06 14:26:00,
2014-02-06 08:31:00,-3.4,-8.1,30.39,WSW,248,2.4,5.4,80,0.00,,,0.00,WUHU216HW,2014-02-06 14:31:00,
2014-02-06 08:36:00,-3.2,-7.9,30.39,WSW,248,4.9,5.4,80,0.00,,,0.00,WUHU216HW,2014-02-06 14:36:00,
2014-02-06 08:41:00,-3.2,-7.9,30.39,West,270,6.4,7.4,80,0.00,,,0.00,WUHU216HW,2014-02-06 14:41:00,
2014-02-06 08:46:00,-2.9,-7.6,30.39,WSW,248,0.8,7.4,80,0.00,,,0.00,WUHU216HW,2014-02-06 14:46:00,
2014-02-06 08:51:00,-2.7,-7.4,30.39,WSW,248,3.7,6.9,80,0.00,,,0.00,WUHU216HW,2014-02-06 14:51:00,
2014-02-06 08:56:00,-2.5,-7.5,30.39,West,270,2.4,6.4,79,0.00,,,0.00,WUHU216HW,2014-02-06 14:56:00,
2014-02-06 09:01:00,-2.2,-7.1,30.39,WSW,248,1.4,5.9,79,0.00,,,0.00,WUHU216HW,2014-02-06 15:01:00,
2014-02-06 09:06:00,-2.0,-6.9,30.39,WSW,248,8.9,9.6,79,0.00,,,0.00,WUHU216HW,2014-02-06 15:06:00,
2014-02-06 09:11:00,-2.0,-6.9,30.39,West,270,7.6,9.6,79,0.00,,,0.00,WUHU216HW,2014-02-06 15:11:00,
2014-02-06 09:16:00,-1.8,-6.7,30.39,West,270,7.6,8.9,79,0.00,,,0.00,WUHU216HW,2014-02-06 15:16:00,
2014-02-06 09:21:00,-1.4,-6.4,30.39,West,270,7.2,7.6,79,0.00,,,0.00,WUHU216HW,2014-02-06 15:21:00,
2014-02-06 09:26:00,-1.4,-6.4,30.39,West,270,3.2,7.2,79,0.00,,,0.00,WUHU216HW,2014-02-06 15:26:00,
2014-02-06 09:31:00,-0.7,-6.2,30.39,WNW,293,6.2,7.4,77,0.00,,,0.00,WUHU216HW,2014-02-06 15:31:00,
2014-02-06 09:36:00,-0.5,-6.1,30.39,NW,315,5.2,10.3,77,0.00,,,0.00,WUHU216HW,2014-02-06 15:36:00,
2014-02-06 09:41:00,-0.7,-6.2,30.39,West,270,4.4,10.3,77,0.00,,,0.00,WUHU216HW,2014-02-06 15:41:00,
2014-02-06 09:46:00,-0.7,-6.6,30.40,West,270,7.6,10.1,76,0.00,,,0.00,WUHU216HW,2014-02-06 15:46:00,
2014-02-06 09:51:00,-0.5,-6.1,30.40,WNW,293,4.7,10.1,77,0.00,,,0.00,WUHU216HW,2014-02-06 15:51:00,
2014-02-06 09:56:00,-0.2,-5.8,30.40,West,270,4.4,7.6,77,0.00,,,0.00,WUHU216HW,2014-02-06 15:56:00,
2014-02-06 10:01:00,0.0,-5.8,30.40,West,270,6.9,10.1,76,0.00,,,0.00,WUHU216HW,2014-02-06 16:01:00,
2014-02-06 10:06:00,0.2,-5.7,30.40,West,270,5.2,10.1,76,0.00,,,0.00,WUHU216HW,2014-02-06 16:06:00,
2014-02-06 10:11:00,0.2,-5.7,30.40,West,270,6.9,8.4,76,0.00,,,0.00,WUHU216HW,2014-02-06 16:11:00,
2014-02-06 10:16:00,0.2,-5.9,30.40,WSW,248,6.4,8.9,75,0.00,,,0.00,WUHU216HW,2014-02-06 16:16:00,
2014-02-06 10:21:00,0.4,-5.5,30.39,West,270,5.9,8.9,76,0.00,,,0.00,WUHU216HW,2014-02-06 16:21:00,
2014-02-06 10:26:00,0.7,-5.5,30.39,West,270,7.4,7.6,75,0.00,,,0.00,WUHU216HW,2014-02-06 16:26:00,
2014-02-06 10:32:00,0.7,-5.5,30.40,West,270,5.2,9.4,75,0.00,,,0.00,WUHU216HW,2014-02-06 16:32:00,
2014-02-06 10:37:00,0.9,-5.6,30.39,WSW,248,3.7,9.4,74,0.00,,,0.00,WUHU216HW,2014-02-06 16:37:00,
2014-02-06 10:43:00,1.4,-5.0,30.39,West,270,5.2,7.6,74,0.00,,,0.00,WUHU216HW,2014-02-06 16:43:00,
2014-02-06 10:48:00,1.8,-4.9,30.39,WSW,248,4.4,7.6,73,0.00,,,0.00,WUHU216HW,2014-02-06 16:48:00,
2014-02-06 10:53:00,2.0,-4.8,30.39,SSW,203,4.4,6.9,73,0.00,,,0.00,WUHU216HW,2014-02-06 16:53:00,
2014-02-06 10:58:00,2.5,-4.5,30.39,SSW,203,3.2,6.6,72,0.00,,,0.00,WUHU216HW,2014-02-06 16:58:00,
2014-02-06 11:03:00,2.7,-4.0,30.39,NW,315,3.0,7.6,73,0.00,,,0.00,WUHU216HW,2014-02-06 17:03:00,
2014-02-06 11:08:00,2.5,-4.5,30.39,West,270,7.6,7.6,72,0.00,,,0.00,WUHU216HW,2014-02-06 17:08:00,
2014-02-06 11:13:00,2.9,-4.1,30.39,SW,225,2.2,7.6,72,0.00,,,0.00,WUHU216HW,2014-02-06 17:13:00,
2014-02-06 11:18:00,3.1,-4.0,30.39,SW,225,4.2,7.6,72,0.00,,,0.00,WUHU216HW,2014-02-06 17:18:00,
2014-02-06 11:23:00,3.2,-4.0,30.39,West,270,6.2,7.2,71,0.00,,,0.00,WUHU216HW,2014-02-06 17:23:00,
2014-02-06 11:28:00,3.2,-4.0,30.38,SSW,203,5.4,7.2,71,0.00,,,0.00,WUHU216HW,2014-02-06 17:28:00,
2014-02-06 11:33:00,3.2,-4.0,30.38,SSW,203,6.2,10.8,71,0.00,,,0.00,WUHU216HW,2014-02-06 17:33:00,
2014-02-06 11:39:00,3.4,-4.1,30.38,South,180,5.6,10.8,70,0.00,,,0.00,WUHU216HW,2014-02-06 17:39:00,
2014-02-06 11:45:00,3.6,-3.9,30.37,SSW,203,5.9,6.9,70,0.00,,,0.00,WUHU216HW,2014-02-06 17:45:00,
2014-02-06 11:50:00,3.6,-3.9,30.37,West,270,4.7,8.4,70,0.00,,,0.00,WUHU216HW,2014-02-06 17:50:00,
2014-02-06 11:55:00,3.6,-4.3,30.37,WSW,248,5.6,8.4,69,0.00,,,0.00,WUHU216HW,2014-02-06 17:55:00,
2014-02-06 12:00:00,4.0,-3.9,30.37,SSW,203,6.6,10.3,69,0.00,,,0.00,WUHU216HW,2014-02-06 18:00:00,
2014-02-06 12:05:00,3.6,-4.3,30.37,WSW,248,5.6,10.3,69,0.00,,,0.00,WUHU216HW,2014-02-06 18:05:00,
2014-02-06 12:10:00,3.6,-4.3,30.37,WSW,248,5.6,7.6,69,0.00,,,0.00,WUHU216HW,2014-02-06 18:10:00,
2014-02-06 12:15:00,3.6,-4.3,30.37,SSW,203,6.6,10.8,69,0.00,,,0.00,WUHU216HW,2014-02-06 18:15:00,
2014-02-06 12:20:00,3.6,-4.3,30.36,WSW,248,7.4,10.8,69,0.00,,,0.00,WUHU216HW,2014-02-06 18:20:00,
2014-02-06 12:25:00,3.8,-4.1,30.36,WNW,293,6.2,9.4,69,0.00,,,0.00,WUHU216HW,2014-02-06 18:25:00,
2014-02-06 12:30:00,3.6,-4.3,30.36,WSW,248,3.7,10.1,69,0.00,,,0.00,WUHU216HW,2014-02-06 18:30:00,
2014-02-06 12:35:00,4.0,-3.9,30.36,NNW,338,3.7,10.1,69,0.00,,,0.00,WUHU216HW,2014-02-06 18:35:00,
2014-02-06 12:40:00,4.1,-4.1,30.36,WSW,248,5.6,10.1,68,0.00,,,0.00,WUHU216HW,2014-02-06 18:40:00,
2014-02-06 12:45:00,3.6,-4.7,30.36,SW,225,5.2,10.8,68,0.00,,,0.00,WUHU216HW,2014-02-06 18:45:00,
2014-02-06 12:50:00,3.8,-4.1,30.36,West,270,5.9,10.8,69,0.00,,,0.00,WUHU216HW,2014-02-06 18:50:00,
2014-02-06 12:57:00,3.6,-4.3,30.35,NW,315,4.4,12.5,69,0.00,,,0.00,WUHU216HW,2014-02-06 18:57:00,
2014-02-06 13:02:00,3.6,-4.3,30.35,SW,225,5.2,12.5,69,0.00,,,0.00,WUHU216HW,2014-02-06 19:02:00,
2014-02-06 13:08:00,3.8,-4.1,30.35,SSW,203,3.4,11.3,69,0.00,,,0.00,WUHU216HW,2014-02-06 19:08:00,
2014-02-06 13:13:00,4.0,-3.9,30.35,WSW,248,7.2,7.6,69,0.00,,,0.00,WUHU216HW,2014-02-06 19:13:00,
2014-02-06 13:18:00,4.0,-4.3,30.34,SSW,203,5.9,8.9,68,0.00,,,0.00,WUHU216HW,2014-02-06 19:18:00,
2014-02-06 13:23:00,4.0,-3.9,30.34,SSW,203,4.9,8.9,69,0.00,,,0.00,WUHU216HW,2014-02-06 19:23:00,
2014-02-06 13:28:00,4.0,-3.9,30.34,WSW,248,5.9,10.1,69,0.00,,,0.00,WUHU216HW,2014-02-06 19:28:00,
2014-02-06 13:33:00,4.1,-3.9,30.34,SSW,203,9.8,10.1,69,0.00,,,0.00,WUHU216HW,2014-02-06 19:33:00,
2014-02-06 13:38:00,4.0,-4.3,30.34,SE,135,5.4,12.5,68,0.00,,,0.00,WUHU216HW,2014-02-06 19:38:00,
2014-02-06 13:43:00,4.0,-3.9,30.34,SSW,203,8.6,12.5,69,0.00,,,0.00,WUHU216HW,2014-02-06 19:43:00,
2014-02-06 13:48:00,4.3,-3.7,30.34,SSW,203,5.9,10.1,69,0.00,,,0.00,WUHU216HW,2014-02-06 19:48:00,
2014-02-06 13:53:00,4.3,-3.7,30.34,South,180,2.8,10.1,69,0.00,,,0.00,WUHU216HW,2014-02-06 19:53:00,
2014-02-06 13:59:00,4.7,-3.7,30.34,SW,225,5.9,7.9,68,0.00,,,0.00,WUHU216HW,2014-02-06 19:59:00,
2014-02-06 14:04:00,4.5,-3.9,30.33,SW,225,6.9,10.6,68,0.00,,,0.00,WUHU216HW,2014-02-06 20:04:00,
2014-02-06 14:09:00,4.7,-3.7,30.33,SSE,158,6.2,10.6,68,0.00,,,0.00,WUHU216HW,2014-02-06 20:09:00,
2014-02-06 14:14:00,4.7,-3.7,30.33,SSW,203,7.6,9.1,68,0.00,,,0.00,WUHU216HW,2014-02-06 20:14:00,
2014-02-06 14:19:00,4.7,-3.7,30.33,WSW,248,4.2,9.1,68,0.00,,,0.00,WUHU216HW,2014-02-06 20:19:00,
2014-02-06 14:24:00,4.9,-3.5,30.33,SSW,203,5.2,7.6,68,0.00,,,0.00,WUHU216HW,2014-02-06 20:24:00,
2014-02-06 14:29:00,4.9,-3.9,30.33,West,270,7.9,10.1,67,0.00,,,0.00,WUHU216HW,2014-02-06 20:29:00,
2014-02-06 14:34:00,5.0,-3.7,30.33,WSW,248,8.1,10.1,67,0.00,,,0.00,WUHU216HW,2014-02-06 20:34:00,
2014-02-06 14:39:00,4.9,-3.9,30.33,WSW,248,4.4,8.6,67,0.00,,,0.00,WUHU216HW,2014-02-06 20:39:00,
2014-02-06 14:44:00,4.7,-3.9,30.33,SW,225,5.9,9.1,67,0.00,,,0.00,WUHU216HW,2014-02-06 20:44:00,
2014-02-06 14:49:00,4.7,-3.9,30.33,WSW,248,8.4,9.1,67,0.00,,,0.00,WUHU216HW,2014-02-06 20:49:00,
2014-02-06 14:54:00,4.7,-3.9,30.33,SSW,203,6.4,9.8,67,0.00,,,0.00,WUHU216HW,2014-02-06 20:54:00,
2014-02-06 14:59:00,4.9,-3.9,30.32,SSW,203,9.4,9.8,67,0.00,,,0.00,WUHU216HW,2014-02-06 20:59:00,
2014-02-06 15:04:00,4.7,-3.9,30.32,South,180,3.7,13.1,67,0.00,,,0.00,WUHU216HW,2014-02-06 21:04:00,
2014-02-06 15:09:00,4.7,-4.3,30.32,SSW,203,4.7,13.1,66,0.00,,,0.00,WUHU216HW,2014-02-06 21:09:00,
2014-02-06 15:14:00,4.7,-3.9,30.32,South,180,5.9,11.1,67,0.00,,,0.00,WUHU216HW,2014-02-06 21:14:00,
2014-02-06 15:19:00,4.7,-3.9,30.33,SW,225,4.9,9.6,67,0.00,,,0.00,WUHU216HW,2014-02-06 21:19:00,
2014-02-06 15:26:00,4.9,-4.1,30.33,SW,225,7.2,8.4,66,0.00,,,0.00,WUHU216HW,2014-02-06 21:26:00,
2014-02-06 15:31:00,4.9,-4.1,30.32,SSW,203,7.6,9.4,66,0.00,,,0.00,WUHU216HW,2014-02-06 21:31:00,
2014-02-06 15:36:00,4.9,-4.1,30.32,SE,135,5.2,9.4,66,0.00,,,0.00,WUHU216HW,2014-02-06 21:36:00,
2014-02-06 15:41:00,4.9,-3.9,30.32,ESE,113,5.9,8.4,67,0.00,,,0.00,WUHU216HW,2014-02-06 21:41:00,
2014-02-06 15:46:00,4.7,-3.9,30.32,South,180,7.9,7.9,67,0.00,,,0.00,WUHU216HW,2014-02-06 21:46:00,
2014-02-06 15:51:00,4.7,-3.9,30.32,WSW,248,7.6,9.8,67,0.00,,,0.00,WUHU216HW,2014-02-06 21:51:00,
2014-02-06 15:56:00,4.7,-3.9,30.31,SSW,203,6.6,9.8,67,0.00,,,0.00,WUHU216HW,2014-02-06 21:56:00,
2014-02-06 16:01:00,4.5,-4.1,30.31,SSW,203,5.9,8.6,67,0.00,,,0.00,WUHU216HW,2014-02-06 22:01:00,
2014-02-06 16:06:00,4.5,-4.1,30.31,SSW,203,6.9,9.4,67,0.00,,,0.00,WUHU216HW,2014-02-06 22:06:00,
2014-02-06 16:11:00,4.3,-4.3,30.31,South,180,4.2,9.4,67,0.00,,,0.00,WUHU216HW,2014-02-06 22:11:00,
2014-02-06 16:16:00,4.3,-4.3,30.31,SSW,203,7.2,10.3,67,0.00,,,0.00,WUHU216HW,2014-02-06 22:16:00,
2014-02-06 16:21:00,4.3,-4.3,30.31,SSW,203,8.9,10.3,67,0.00,,,0.00,WUHU216HW,2014-02-06 22:21:00,
2014-02-06 16:26:00,4.3,-4.3,30.31,SSW,203,7.9,10.3,67,0.00,,,0.00,WUHU216HW,2014-02-06 22:26:00,
2014-02-06 16:31:00,4.1,-4.5,30.31,West,270,5.4,9.4,67,0.00,,,0.00,WUHU216HW,2014-02-06 22:31:00,
2014-02-06 16:40:00,4.0,-4.9,30.31,South,180,4.7,9.4,66,0.00,,,0.00,WUHU216HW,2014-02-06 22:40:00,
2014-02-06 16:45:00,4.0,-4.7,30.31,WSW,248,5.2,7.2,67,0.00,,,0.00,WUHU216HW,2014-02-06 22:45:00,
2014-02-06 16:50:00,4.0,-4.7,30.31,ESE,113,5.4,7.2,67,0.00,,,0.00,WUHU216HW,2014-02-06 22:50:00,
2014-02-06 16:55:00,3.8,-4.8,30.31,South,180,5.6,6.6,67,0.00,,,0.00,WUHU216HW,2014-02-06 22:55:00,
2014-02-06 17:00:00,3.6,-4.9,30.31,South,180,7.6,7.6,67,0.00,,,0.00,WUHU216HW,2014-02-06 23:00:00,
2014-02-06 17:05:00,3.6,-5.3,30.31,SE,135,6.6,8.6,66,0.00,,,0.00,WUHU216HW,2014-02-06 23:05:00,
2014-02-06 17:10:00,3.4,-5.1,30.31,SW,225,5.9,8.6,67,0.00,,,0.00,WUHU216HW,2014-02-06 23:10:00,
2014-02-06 17:15:00,3.2,-5.3,30.31,SW,225,4.4,7.4,67,0.00,,,0.00,WUHU216HW,2014-02-06 23:15:00,
2014-02-06 17:21:00,3.1,-5.5,30.30,SW,225,5.2,7.4,67,0.00,,,0.00,WUHU216HW,2014-02-06 23:21:00,
2014-02-06 17:26:00,3.1,-5.5,30.30,SW,225,4.0,6.4,67,0.00,,,0.00,WUHU216HW,2014-02-06 23:26:00,
2014-02-06 17:31:00,2.9,-5.7,30.30,SSW,203,5.9,6.2,67,0.00,,,0.00,WUHU216HW,2014-02-06 23:31:00,
2014-02-06 17:36:00,2.7,-5.8,30.30,SW,225,3.7,6.2,67,0.00,,,0.00,WUHU216HW,2014-02-06 23:36:00,
2014-02-06 17:42:00,2.5,-6.0,30.30,South,180,4.0,6.4,67,0.00,,,0.00,WUHU216HW,2014-02-06 23:42:00,
2014-02-06 17:48:00,2.5,-6.0,30.30,SSW,203,5.2,6.6,67,0.00,,,0.00,WUHU216HW,2014-02-06 23:48:00,
2014-02-06 17:53:00,2.3,-6.2,30.30,WSW,248,3.7,6.6,67,0.00,,,0.00,WUHU216HW,2014-02-06 23:53:00,
2014-02-06 17:59:00,2.2,-6.4,30.30,SSW,203,4.2,6.4,67,0.00,,,0.00,WUHU216HW,2014-02-06 23:59:00,
2014-02-06 18:04:00,2.0,-6.2,30.30,SSW,203,5.6,6.2,68,0.00,,,0.00,WUHU216HW,2014-02-07 00:04:00,
2014-02-06 18:09:00,2.0,-6.2,30.30,SSW,203,5.2,6.2,68,0.00,,,0.00,WUHU216HW,2014-02-07 00:09:00,
2014-02-06 18:14:00,1.8,-6.4,30.30,SSW,203,1.4,5.4,68,0.00,,,0.00,WUHU216HW,2014-02-07 00:14:00,
2014-02-06 18:19:00,1.6,-6.6,30.30,SSW,203,4.4,5.4,68,0.00,,,0.00,WUHU216HW,2014-02-07 00:19:00,
2014-02-06 18:24:00,1.3,-6.7,30.30,SSW,203,3.0,6.2,69,0.00,,,0.00,WUHU216HW,2014-02-07 00:24:00,
2014-02-06 18:29:00,1.1,-6.8,30.30,South,180,4.4,6.6,69,0.00,,,0.00,WUHU216HW,2014-02-07 00:29:00,
2014-02-06 18:34:00,0.7,-6.8,30.30,South,180,5.9,6.9,70,0.00,,,0.00,WUHU216HW,2014-02-07 00:34:00,
2014-02-06 18:39:00,0.7,-6.8,30.30,SW,225,6.2,7.9,70,0.00,,,0.00,WUHU216HW,2014-02-07 00:39:00,
2014-02-06 18:44:00,0.5,-7.0,30.30,WSW,248,4.2,7.9,70,0.00,,,0.00,WUHU216HW,2014-02-07 00:44:00,
2014-02-06 18:49:00,0.5,-7.0,30.30,SSW,203,4.9,8.4,70,0.00,,,0.00,WUHU216HW,2014-02-07 00:49:00,
2014-02-06 18:54:00,0.4,-7.2,30.30,SSW,203,2.8,8.4,70,0.00,,,0.00,WUHU216HW,2014-02-07 00:54:00,
2014-02-06 18:59:00,0.4,-7.2,30.31,SSW,203,4.0,8.4,70,0.00,,,0.00,WUHU216HW,2014-02-07 00:59:00,
2014-02-06 19:04:00,0.4,-6.9,30.30,SSW,203,2.0,8.1,71,0.00,,,0.00,WUHU216HW,2014-02-07 01:04:00,
2014-02-06 19:09:00,0.4,-6.9,30.30,SSW,203,7.4,8.1,71,0.00,,,0.00,WUHU216HW,2014-02-07 01:09:00,
2014-02-06 19:14:00,0.4,-6.9,30.31,WSW,248,7.6,9.4,71,0.00,,,0.00,WUHU216HW,2014-02-07 01:14:00,
2014-02-06 19:19:00,0.2,-7.1,30.31,SSW,203,9.4,9.4,71,0.00,,,0.00,WUHU216HW,2014-02-07 01:19:00,
2014-02-06 19:24:00,0.4,-6.9,30.30,SSW,203,5.6,9.4,71,0.00,,,0.00,WUHU216HW,2014-02-07 01:24:00,
2014-02-06 19:29:00,0.4,-6.9,30.30,SW,225,9.1,10.6,71,0.00,,,0.00,WUHU216HW,2014-02-07 01:29:00,
2014-02-06 19:34:00,0.4,-6.9,30.31,West,270,7.6,10.6,71,0.00,,,0.00,WUHU216HW,2014-02-07 01:34:00,
2014-02-06 19:39:00,0.2,-7.1,30.31,South,180,7.4,9.1,71,0.00,,,0.00,WUHU216HW,2014-02-07 01:39:00,
2014-02-06 19:44:00,0.0,-7.3,30.31,SW,225,8.4,10.1,71,0.00,,,0.00,WUHU216HW,2014-02-07 01:44:00,
2014-02-06 19:49:00,-0.2,-7.2,30.31,WSW,248,9.4,11.1,72,0.00,,,0.00,WUHU216HW,2014-02-07 01:49:00,
2014-02-06 19:54:00,-0.2,-7.2,30.31,SSE,158,5.9,11.1,72,0.00,,,0.00,WUHU216HW,2014-02-07 01:54:00,
2014-02-06 19:59:00,-0.4,-7.4,30.31,SW,225,6.4,10.1,72,0.00,,,0.00,WUHU216HW,2014-02-07 01:59:00,
2014-02-06 20:05:00,-0.4,-7.4,30.32,SW,225,7.9,10.1,72,0.00,,,0.00,WUHU216HW,2014-02-07 02:05:00,
2014-02-06 20:11:00,-0.4,-7.4,30.32,SSW,203,6.6,9.8,72,0.00,,,0.00,WUHU216HW,2014-02-07 02:11:00,
2014-02-06 20:16:00,-0.5,-7.5,30.32,WSW,248,6.2,8.4,72,0.00,,,0.00,WUHU216HW,2014-02-07 02:16:00,
2014-02-06 20:21:00,-0.7,-7.6,30.32,SSW,203,8.4,9.4,72,0.00,,,0.00,WUHU216HW,2014-02-07 02:21:00,
2014-02-06 20:26:00,-0.7,-7.6,30.32,WSW,248,7.2,10.8,72,0.00,,,0.00,WUHU216HW,2014-02-07 02:26:00,
2014-02-06 20:31:00,-0.9,-7.8,30.32,SSW,203,6.4,10.8,72,0.00,,,0.00,WUHU216HW,2014-02-07 02:31:00,
2014-02-06 20:36:00,-1.1,-8.0,30.32,SW,225,7.4,7.6,72,0.00,,,0.00,WUHU216HW,2014-02-07 02:36:00,
2014-02-06 20:41:00,-1.1,-8.0,30.33,SW,225,4.9,7.6,72,0.00,,,0.00,WUHU216HW,2014-02-07 02:41:00,
2014-02-06 20:46:00,-1.1,-8.0,30.32,SSW,203,6.9,7.6,72,0.00,,,0.00,WUHU216HW,2014-02-07 02:46:00,
2014-02-06 20:51:00,-1.1,-8.0,30.33,WSW,248,4.4,8.4,72,0.00,,,0.00,WUHU216HW,2014-02-07 02:51:00,
2014-02-06 20:56:00,-1.3,-8.2,30.33,SW,225,4.4,8.4,72,0.00,,,0.00,WUHU216HW,2014-02-07 02:56:00,
2014-02-06 21:01:00,-1.4,-8.4,30.32,SSW,203,5.4,7.2,72,0.00,,,0.00,WUHU216HW,2014-02-07 03:01:00,
2014-02-06 21:06:00,-1.6,-8.2,30.33,West,270,5.2,7.4,73,0.00,,,0.00,WUHU216HW,2014-02-07 03:06:00,
2014-02-06 21:11:00,-1.6,-8.2,30.33,SW,225,3.7,7.4,73,0.00,,,0.00,WUHU216HW,2014-02-07 03:11:00,
2014-02-06 21:16:00,-1.8,-8.4,30.33,SSW,203,3.4,6.9,73,0.00,,,0.00,WUHU216HW,2014-02-07 03:16:00,
2014-02-06 21:21:00,-1.8,-8.4,30.33,SW,225,2.8,6.6,73,0.00,,,0.00,WUHU216HW,2014-02-07 03:21:00,
2014-02-06 21:26:00,-2.0,-8.5,30.33,SSW,203,4.4,6.6,73,0.00,,,0.00,WUHU216HW,2014-02-07 03:26:00,
2014-02-06 21:31:00,-2.0,-8.5,30.33,SW,225,3.0,6.2,73,0.00,,,0.00,WUHU216HW,2014-02-07 03:31:00,
2014-02-06 21:36:00,-2.2,-8.7,30.33,SW,225,5.2,6.9,73,0.00,,,0.00,WUHU216HW,2014-02-07 03:36:00,
2014-02-06 21:41:00,-2.3,-8.9,30.33,SW,225,3.4,6.9,73,0.00,,,0.00,WUHU216HW,2014-02-07 03:41:00,
2014-02-06 21:46:00,-2.3,-8.6,30.33,SSW,203,2.4,5.9,74,0.00,,,0.00,WUHU216HW,2014-02-07 03:46:00,
2014-02-06 21:51:00,-2.3,-8.6,30.33,SW,225,5.2,6.4,74,0.00,,,0.00,WUHU216HW,2014-02-07 03:51:00,
2014-02-06 21:56:00,-2.7,-9.0,30.33,SSW,203,5.4,7.2,74,0.00,,,0.00,WUHU216HW,2014-02-07 03:56:00,
2014-02-06 22:01:00,-2.5,-8.8,30.33,SSW,203,3.4,7.2,74,0.00,,,0.00,WUHU216HW,2014-02-07 04:01:00,
2014-02-06 22:07:00,-2.5,-8.8,30.32,SW,225,4.4,6.6,74,0.00,,,0.00,WUHU216HW,2014-02-07 04:07:00,
2014-02-06 22:12:00,-2.5,-8.8,30.32,SSW,203,4.4,7.6,74,0.00,,,0.00,WUHU216HW,2014-02-07 04:12:00,
2014-02-06 22:17:00,-2.5,-8.8,30.32,SSW,203,6.6,8.4,74,0.00,,,0.00,WUHU216HW,2014-02-07 04:17:00,
2014-02-06 22:22:00,-2.5,-8.8,30.32,SSE,158,5.2,8.4,74,0.00,,,0.00,WUHU216HW,2014-02-07 04:22:00,
2014-02-06 22:27:00,-2.5,-8.8,30.32,SW,225,5.9,7.2,74,0.00,,,0.00,WUHU216HW,2014-02-07 04:27:00,
2014-02-06 22:32:00,-2.5,-8.8,30.33,SW,225,5.2,6.6,74,0.00,,,0.00,WUHU216HW,2014-02-07 04:32:00,
2014-02-06 22:37:00,-2.7,-9.0,30.33,SW,225,4.4,6.4,74,0.00,,,0.00,WUHU216HW,2014-02-07 04:37:00,
2014-02-06 22:42:00,-2.7,-9.0,30.33,SSW,203,3.7,6.4,74,0.00,,,0.00,WUHU216HW,2014-02-07 04:42:00,
2014-02-06 22:47:00,-2.7,-9.0,30.33,SW,225,4.4,6.4,74,0.00,,,0.00,WUHU216HW,2014-02-07 04:47:00,
2014-02-06 22:52:00,-2.7,-9.0,30.33,West,270,4.7,6.9,74,0.00,,,0.00,WUHU216HW,2014-02-07 04:52:00,
2014-02-06 22:57:00,-2.7,-9.0,30.33,WSW,248,5.4,6.9,74,0.00,,,0.00,WUHU216HW,2014-02-07 04:57:00,
2014-02-06 23:01:00,-2.9,-9.2,30.33,WSW,248,5.9,5.9,74,0.00,,,0.00,WUHU216HW,2014-02-07 05:01:00,
2014-02-06 23:06:00,-3.2,-9.5,30.33,SSW,203,5.6,5.9,74,0.00,,,0.00,WUHU216HW,2014-02-07 05:06:00,
2014-02-06 23:12:00,-2.9,-9.2,30.33,SSW,203,5.6,6.4,74,0.00,,,0.00,WUHU216HW,2014-02-07 05:12:00,
2014-02-06 23:17:00,-2.9,-9.2,30.33,SSW,203,4.4,6.4,74,0.00,,,0.00,WUHU216HW,2014-02-07 05:17:00,
2014-02-06 23:25:00,-3.1,-9.4,30.33,SW,225,4.0,4.9,74,0.00,,,0.00,WUHU216HW,2014-02-07 05:25:00,
2014-02-06 23:30:00,-3.2,-9.5,30.33,SW,225,3.2,5.6,74,0.00,,,0.00,WUHU216HW,2014-02-07 05:30:00,
2014-02-06 23:36:00,-3.4,-9.7,30.33,SW,225,4.9,5.6,74,0.00,,,0.00,WUHU216HW,2014-02-07 05:36:00,
2014-02-06 23:41:00,-3.4,-9.7,30.33,SSW,203,1.8,5.2,74,0.00,,,0.00,WUHU216HW,2014-02-07 05:41:00,
2014-02-06 23:46:00,-3.6,-9.9,30.32,South,180,2.4,5.2,74,0.00,,,0.00,WUHU216HW,2014-02-07 05:46:00,
2014-02-06 23:51:00,-3.8,-9.8,30.32,SSW,203,3.2,5.2,75,0.00,,,0.00,WUHU216HW,2014-02-07 05:51:00,
2014-02-06 23:56:00,-3.8,-9.8,30.32,SW,225,2.8,4.7,75,0.00,,,0.00,WUHU216HW,2014-02-07 05:56:00,